Datum;Richtung;Anzahl Messungen;Anzahl Fahrzeuge;Durchschnittsgeschwindigkeit;Höchstgeschwindigkeit
18/07/2022 11:00;1;7;7;21.14;26.00
18/07/2022 11:30;1;23;23;20.22;32.00
18/07/2022 12:00;1;11;11;21.00;26.00
18/07/2022 12:30;1;35;35;19.43;29.00
18/07/2022 13:00;1;13;13;19.23;27.00
18/07/2022 13:30;1;14;14;20.14;28.00
18/07/2022 14:00;1;17;17;20.82;28.00
18/07/2022 14:30;1;17;17;19.65;32.00
18/07/2022 15:00;1;12;12;19.08;24.00
18/07/2022 15:30;1;21;21;20.00;34.00
18/07/2022 16:00;1;29;29;21.79;30.00
18/07/2022 16:30;1;27;27;20.37;32.00
18/07/2022 17:00;1;31;31;20.26;28.00
18/07/2022 17:30;1;20;20;20.80;35.00
18/07/2022 18:00;1;28;28;21.61;31.00
18/07/2022 18:30;1;35;35;22.17;31.00
18/07/2022 19:00;1;19;19;21.79;40.00
18/07/2022 19:30;1;15;15;22.07;30.00
18/07/2022 20:00;1;21;21;22.33;37.00
18/07/2022 20:30;1;7;7;22.43;28.00
18/07/2022 21:00;1;13;13;19.77;27.00
18/07/2022 21:30;1;6;6;19.83;24.00
18/07/2022 22:00;1;3;3;18.67;23.00
18/07/2022 22:30;1;3;3;21.67;24.00
18/07/2022 23:00;1;2;2;19.00;21.00
18/07/2022 23:30;1;2;2;17.50;18.00
19/07/2022 01:00;1;1;1;18.00;18.00
19/07/2022 01:30;1;2;2;20.50;21.00
19/07/2022 02:30;1;1;1;28.00;28.00
19/07/2022 03:00;1;1;1;21.00;21.00
19/07/2022 04:30;1;2;2;18.50;21.00
19/07/2022 05:00;1;1;1;21.00;21.00
19/07/2022 05:30;1;3;3;17.33;20.00
19/07/2022 06:00;1;8;8;22.88;28.00
19/07/2022 06:30;1;4;4;19.50;22.00
19/07/2022 07:00;1;10;10;19.20;24.00
19/07/2022 07:30;1;21;21;19.62;28.00
19/07/2022 08:00;1;33;33;20.64;29.00
19/07/2022 08:30;1;21;21;20.00;29.00
19/07/2022 09:00;1;14;14;20.50;30.00
19/07/2022 09:30;1;19;19;19.58;25.00
19/07/2022 10:00;1;17;17;20.53;44.00
19/07/2022 10:30;1;20;20;19.75;37.00
19/07/2022 11:00;1;9;9;17.44;21.00
19/07/2022 11:30;1;13;13;22.38;34.00
19/07/2022 12:00;1;14;14;20.00;28.00
19/07/2022 12:30;1;20;20;20.35;30.00
19/07/2022 13:00;1;23;23;19.74;26.00
19/07/2022 13:30;1;12;12;21.00;27.00
19/07/2022 14:00;1;12;12;20.25;28.00
19/07/2022 14:30;1;13;13;22.62;39.00
19/07/2022 15:00;1;11;11;22.36;36.00
19/07/2022 15:30;1;24;24;20.25;34.00
19/07/2022 16:00;1;17;17;19.82;27.00
19/07/2022 16:30;1;36;36;21.22;28.00
19/07/2022 17:00;1;27;27;21.19;31.00
19/07/2022 17:30;1;34;34;19.88;32.00
19/07/2022 18:00;1;23;23;20.52;30.00
19/07/2022 18:30;1;24;24;19.92;26.00
19/07/2022 19:00;1;24;24;22.42;38.00
19/07/2022 19:30;1;24;24;21.96;31.00
19/07/2022 20:00;1;15;15;20.87;26.00
19/07/2022 20:30;1;15;15;20.73;32.00
19/07/2022 21:00;1;7;7;20.29;26.00
19/07/2022 21:30;1;12;12;18.92;28.00
19/07/2022 22:00;1;5;5;20.60;25.00
19/07/2022 22:30;1;7;7;19.43;29.00
19/07/2022 23:00;1;5;5;20.60;21.00
19/07/2022 23:30;1;4;4;20.75;23.00
20/07/2022 00:30;1;1;1;21.00;21.00
20/07/2022 01:00;1;1;1;16.00;16.00
20/07/2022 02:00;1;1;1;18.00;18.00
20/07/2022 03:30;1;1;1;23.00;23.00
20/07/2022 04:30;1;2;2;18.00;18.00
20/07/2022 05:00;1;1;1;25.00;25.00
20/07/2022 05:30;1;5;5;18.60;21.00
20/07/2022 06:00;1;13;13;22.15;33.00
20/07/2022 06:30;1;12;12;18.83;22.00
20/07/2022 07:00;1;17;17;20.82;29.00
20/07/2022 07:30;1;15;15;21.67;27.00
20/07/2022 08:00;1;33;33;20.61;31.00
20/07/2022 08:30;1;22;22;20.32;31.00
20/07/2022 09:00;1;18;18;19.39;26.00
20/07/2022 09:30;1;29;29;20.93;29.00
20/07/2022 10:00;1;20;20;18.90;25.00
20/07/2022 10:30;1;15;15;19.20;29.00
20/07/2022 11:00;1;10;10;21.30;34.00
20/07/2022 11:30;1;17;17;20.18;32.00
20/07/2022 12:00;1;14;14;18.79;24.00
20/07/2022 12:30;1;25;25;20.56;29.00
20/07/2022 13:00;1;23;23;21.17;29.00
20/07/2022 13:30;1;10;10;20.10;23.00
20/07/2022 14:00;1;13;13;20.15;25.00
20/07/2022 14:30;1;23;23;20.57;34.00
20/07/2022 15:00;1;25;25;20.12;32.00
20/07/2022 15:30;1;21;21;19.29;31.00
20/07/2022 16:00;1;27;27;19.81;27.00
20/07/2022 16:30;1;41;41;21.46;31.00
20/07/2022 17:00;1;24;24;20.04;30.00
20/07/2022 17:30;1;24;24;20.12;30.00
20/07/2022 18:00;1;35;35;21.60;37.00
20/07/2022 18:30;1;26;26;21.96;32.00
20/07/2022 19:00;1;13;13;21.38;34.00
20/07/2022 19:30;1;8;8;20.25;23.00
20/07/2022 20:00;1;5;5;19.00;21.00
20/07/2022 20:30;1;4;4;19.75;24.00
20/07/2022 21:30;1;2;2;23.00;26.00
20/07/2022 22:00;1;5;5;17.40;18.00
20/07/2022 22:30;1;4;4;20.75;23.00
20/07/2022 23:00;1;4;4;19.50;25.00
20/07/2022 23:30;1;1;1;23.00;23.00
21/07/2022 00:00;1;2;2;20.00;24.00
21/07/2022 04:30;1;1;1;21.00;21.00
21/07/2022 05:00;1;1;1;21.00;21.00
21/07/2022 05:30;1;7;7;19.57;24.00
21/07/2022 06:00;1;4;4;22.75;26.00
21/07/2022 06:30;1;10;10;20.20;27.00
21/07/2022 07:00;1;6;6;21.50;26.00
21/07/2022 07:30;1;11;11;19.82;33.00
21/07/2022 08:00;1;44;44;21.16;28.00
21/07/2022 08:30;1;27;27;20.37;28.00
21/07/2022 09:00;1;17;17;20.47;28.00
21/07/2022 09:30;1;10;10;19.20;29.00
21/07/2022 10:00;1;19;19;19.32;29.00
21/07/2022 10:30;1;11;11;20.73;34.00
21/07/2022 11:00;1;9;9;20.11;29.00
21/07/2022 11:30;1;13;13;20.08;29.00
21/07/2022 12:00;1;12;12;18.67;25.00
21/07/2022 12:30;1;21;21;19.86;28.00
21/07/2022 13:00;1;24;24;18.58;26.00
21/07/2022 13:30;1;24;24;20.46;28.00
21/07/2022 14:00;1;19;19;21.68;30.00
21/07/2022 14:30;1;11;11;19.45;25.00
21/07/2022 15:00;1;14;14;21.07;32.00
21/07/2022 15:30;1;24;24;20.92;31.00
21/07/2022 16:00;1;21;21;20.76;26.00
21/07/2022 16:30;1;38;38;19.89;29.00
21/07/2022 17:00;1;24;24;21.58;43.00
21/07/2022 17:30;1;41;41;19.51;25.00
21/07/2022 18:00;1;29;29;21.45;30.00
21/07/2022 18:30;1;34;34;21.56;32.00
21/07/2022 19:00;1;29;29;20.83;29.00
21/07/2022 19:30;1;29;29;21.66;31.00
21/07/2022 20:00;1;15;15;21.00;34.00
21/07/2022 20:30;1;6;6;22.00;26.00
21/07/2022 21:00;1;6;6;23.67;31.00
21/07/2022 21:30;1;8;8;19.88;22.00
21/07/2022 22:00;1;4;4;17.75;19.00
21/07/2022 22:30;1;2;2;22.50;25.00
21/07/2022 23:00;1;1;1;23.00;23.00
21/07/2022 23:30;1;3;3;22.67;32.00
22/07/2022 00:30;1;1;1;22.00;22.00
22/07/2022 01:00;1;1;1;16.00;16.00
22/07/2022 02:30;1;1;1;18.00;18.00
22/07/2022 04:30;1;1;1;20.00;20.00
22/07/2022 05:00;1;2;2;23.00;25.00
22/07/2022 05:30;1;6;6;18.67;23.00
22/07/2022 06:00;1;10;10;19.30;25.00
22/07/2022 06:30;1;10;10;20.20;25.00
22/07/2022 07:00;1;11;11;19.64;24.00
22/07/2022 07:30;1;13;13;20.69;31.00
22/07/2022 08:00;1;27;27;21.11;33.00
22/07/2022 08:30;1;23;23;20.78;28.00
22/07/2022 09:00;1;13;13;19.00;25.00
22/07/2022 09:30;1;23;23;21.78;39.00
22/07/2022 10:00;1;19;19;20.74;29.00
22/07/2022 10:30;1;17;17;19.41;30.00
22/07/2022 11:00;1;12;12;18.92;26.00
22/07/2022 11:30;1;11;11;19.91;28.00
22/07/2022 12:00;1;21;21;20.43;25.00
22/07/2022 12:30;1;19;19;20.00;33.00
22/07/2022 13:00;1;30;30;19.83;27.00
22/07/2022 13:30;1;26;26;20.00;27.00
22/07/2022 14:00;1;26;26;19.92;31.00
22/07/2022 14:30;1;21;21;20.76;28.00
22/07/2022 15:00;1;21;21;19.57;26.00
22/07/2022 15:30;1;14;14;20.50;29.00
22/07/2022 16:00;1;22;22;20.23;28.00
22/07/2022 16:30;1;25;25;20.24;25.00
22/07/2022 17:00;1;25;25;19.64;28.00
22/07/2022 17:30;1;21;21;20.19;27.00
22/07/2022 18:00;1;27;27;20.41;31.00
22/07/2022 18:30;1;41;41;21.95;45.00
22/07/2022 19:00;1;12;12;20.58;30.00
22/07/2022 19:30;1;16;16;21.88;29.00
22/07/2022 20:00;1;11;11;21.91;31.00
22/07/2022 20:30;1;9;9;22.00;26.00
22/07/2022 21:00;1;7;7;21.14;25.00
22/07/2022 21:30;1;9;9;20.33;24.00
22/07/2022 22:00;1;4;4;19.50;24.00
22/07/2022 22:30;1;4;4;18.25;21.00
22/07/2022 23:00;1;1;1;17.00;17.00
22/07/2022 23:30;1;3;3;25.67;31.00
23/07/2022 00:30;1;2;2;18.50;19.00
23/07/2022 02:00;1;1;1;20.00;20.00
23/07/2022 02:30;1;1;1;16.00;16.00
23/07/2022 03:30;1;1;1;21.00;21.00
23/07/2022 05:00;1;1;1;31.00;31.00
23/07/2022 05:30;1;2;2;27.00;29.00
23/07/2022 06:00;1;2;2;18.50;20.00
23/07/2022 06:30;1;2;2;24.50;26.00
23/07/2022 07:00;1;2;2;21.00;23.00
23/07/2022 07:30;1;1;1;21.00;21.00
23/07/2022 08:00;1;4;4;20.50;25.00
23/07/2022 08:30;1;3;3;21.33;23.00
23/07/2022 09:00;1;8;8;19.38;22.00
23/07/2022 09:30;1;11;11;19.64;25.00
23/07/2022 10:00;1;9;9;21.56;30.00
23/07/2022 10:30;1;10;10;22.50;31.00
23/07/2022 11:00;1;7;7;20.14;27.00
23/07/2022 11:30;1;15;15;19.27;28.00
23/07/2022 12:00;1;10;10;19.50;23.00
23/07/2022 12:30;1;12;12;19.17;24.00
23/07/2022 13:00;1;12;12;20.75;27.00
23/07/2022 13:30;1;13;13;21.15;26.00
23/07/2022 14:00;1;13;13;22.62;39.00
23/07/2022 14:30;1;20;20;21.55;33.00
23/07/2022 15:00;1;20;20;20.10;36.00
23/07/2022 15:30;1;11;11;21.27;28.00
23/07/2022 16:00;1;12;12;20.17;27.00
23/07/2022 16:30;1;11;11;18.73;23.00
23/07/2022 17:00;1;15;15;19.13;27.00
23/07/2022 17:30;1;20;20;20.20;28.00
23/07/2022 18:00;1;17;17;20.41;27.00
23/07/2022 18:30;1;25;25;19.04;24.00
23/07/2022 19:00;1;15;15;23.47;35.00
23/07/2022 19:30;1;15;15;22.00;42.00
23/07/2022 20:00;1;15;15;23.40;31.00
23/07/2022 20:30;1;7;7;19.86;26.00
23/07/2022 21:00;1;5;5;20.40;26.00
23/07/2022 21:30;1;6;6;18.67;22.00
23/07/2022 22:00;1;2;2;19.50;20.00
23/07/2022 22:30;1;4;4;25.00;31.00
23/07/2022 23:00;1;3;3;21.33;25.00
23/07/2022 23:30;1;4;4;22.00;25.00
24/07/2022 00:00;1;2;2;22.00;22.00
24/07/2022 00:30;1;5;5;20.60;22.00
24/07/2022 01:00;1;7;7;22.71;33.00
24/07/2022 01:30;1;2;2;23.50;24.00
24/07/2022 02:30;1;1;1;20.00;20.00
24/07/2022 03:30;1;1;1;21.00;21.00
24/07/2022 05:00;1;1;1;22.00;22.00
24/07/2022 05:30;1;1;1;24.00;24.00
24/07/2022 06:00;1;1;1;20.00;20.00
24/07/2022 07:00;1;5;5;20.20;24.00
24/07/2022 07:30;1;7;7;18.71;24.00
24/07/2022 08:00;1;4;4;23.25;32.00
24/07/2022 08:30;1;16;16;21.19;34.00
24/07/2022 09:00;1;12;12;20.00;26.00
24/07/2022 09:30;1;22;22;19.32;25.00
24/07/2022 10:00;1;16;16;21.31;35.00
24/07/2022 10:30;1;12;12;19.92;26.00
24/07/2022 11:00;1;19;19;18.74;27.00
24/07/2022 11:30;1;19;19;19.95;32.00
24/07/2022 12:00;1;17;17;21.18;28.00
24/07/2022 12:30;1;11;11;19.64;28.00
24/07/2022 13:00;1;21;21;19.95;33.00
24/07/2022 13:30;1;12;12;19.42;26.00
24/07/2022 14:00;1;17;17;20.59;28.00
24/07/2022 14:30;1;14;14;21.29;28.00
24/07/2022 15:00;1;18;18;19.67;26.00
24/07/2022 15:30;1;22;22;19.68;28.00
24/07/2022 16:00;1;16;16;19.38;25.00
24/07/2022 16:30;1;19;19;21.26;37.00
24/07/2022 17:00;1;17;17;20.35;27.00
24/07/2022 17:30;1;27;27;19.52;25.00
24/07/2022 18:00;1;21;21;19.43;24.00
24/07/2022 18:30;1;17;17;19.12;26.00
24/07/2022 19:00;1;18;18;20.33;25.00
24/07/2022 19:30;1;11;11;22.64;29.00
24/07/2022 20:00;1;13;13;21.08;28.00
24/07/2022 20:30;1;3;3;23.00;29.00
24/07/2022 21:00;1;3;3;20.67;22.00
24/07/2022 21:30;1;9;9;19.11;26.00
24/07/2022 22:00;1;5;5;18.20;21.00
24/07/2022 22:30;1;6;6;22.67;30.00
24/07/2022 23:00;1;2;2;23.50;26.00
24/07/2022 23:30;1;1;1;22.00;22.00
25/07/2022 00:00;1;1;1;27.00;27.00
25/07/2022 01:00;1;1;1;18.00;18.00
25/07/2022 02:00;1;1;1;23.00;23.00
25/07/2022 04:30;1;2;2;19.50;22.00
25/07/2022 05:00;1;1;1;20.00;20.00
25/07/2022 05:30;1;7;7;21.29;28.00
25/07/2022 06:00;1;7;7;25.00;31.00
25/07/2022 06:30;1;7;7;19.29;24.00
25/07/2022 07:00;1;12;12;20.42;27.00
25/07/2022 07:30;1;18;18;20.11;30.00
25/07/2022 08:00;1;25;25;21.88;30.00
25/07/2022 08:30;1;23;23;20.61;34.00
25/07/2022 09:00;1;17;17;20.65;30.00
25/07/2022 09:30;1;15;15;19.60;31.00
25/07/2022 10:00;1;12;12;19.08;25.00
25/07/2022 10:30;1;9;9;18.78;21.00
25/07/2022 11:00;1;20;20;20.35;35.00
25/07/2022 11:30;1;24;24;19.88;28.00
25/07/2022 12:00;1;9;9;19.22;27.00
25/07/2022 12:30;1;13;13;20.23;30.00
25/07/2022 13:00;1;13;13;19.00;25.00
25/07/2022 13:30;1;18;18;20.39;34.00
25/07/2022 14:00;1;18;18;20.28;30.00
25/07/2022 14:30;1;10;10;19.20;21.00
25/07/2022 15:00;1;20;20;20.30;27.00
25/07/2022 15:30;1;21;21;21.05;29.00
25/07/2022 16:00;1;18;18;20.06;27.00
25/07/2022 16:30;1;29;29;21.21;33.00
25/07/2022 17:00;1;23;23;20.04;29.00
25/07/2022 17:30;1;26;26;20.92;30.00
25/07/2022 18:00;1;19;19;22.05;33.00
25/07/2022 18:30;1;28;28;22.32;38.00
25/07/2022 19:00;1;20;20;21.15;29.00
25/07/2022 19:30;1;10;10;21.50;32.00
25/07/2022 20:00;1;14;14;20.71;24.00
25/07/2022 20:30;1;6;6;19.83;22.00
25/07/2022 21:00;1;5;5;19.80;23.00
25/07/2022 21:30;1;6;6;22.50;28.00
25/07/2022 22:00;1;3;3;19.00;21.00
25/07/2022 22:30;1;6;6;23.00;33.00
25/07/2022 23:00;1;4;4;22.75;25.00
25/07/2022 23:30;1;4;4;21.50;26.00
26/07/2022 01:30;1;1;1;21.00;21.00
26/07/2022 04:00;1;1;1;20.00;20.00
26/07/2022 05:00;1;1;1;23.00;23.00
26/07/2022 05:30;1;5;5;23.60;30.00
26/07/2022 06:00;1;8;8;20.00;26.00
26/07/2022 06:30;1;4;4;21.00;26.00
26/07/2022 07:00;1;6;6;18.67;23.00
26/07/2022 07:30;1;15;15;19.20;25.00
26/07/2022 08:00;1;24;24;21.58;30.00
26/07/2022 08:30;1;29;29;20.66;33.00
26/07/2022 09:00;1;18;18;20.39;27.00
26/07/2022 09:30;1;20;20;20.20;29.00
26/07/2022 10:00;1;18;18;19.00;25.00
26/07/2022 10:30;1;21;21;20.76;34.00
26/07/2022 11:00;1;10;10;18.70;23.00
26/07/2022 11:30;1;17;17;20.59;32.00
26/07/2022 12:00;1;20;20;19.50;25.00
26/07/2022 12:30;1;13;13;20.62;27.00
26/07/2022 13:00;1;22;22;21.68;39.00
26/07/2022 13:30;1;16;16;20.25;27.00
26/07/2022 14:00;1;10;10;19.90;28.00
26/07/2022 14:30;1;23;23;21.30;30.00
26/07/2022 15:00;1;18;18;20.72;28.00
26/07/2022 15:30;1;10;10;22.30;41.00
26/07/2022 16:00;1;30;30;20.67;28.00
26/07/2022 16:30;1;30;30;20.07;36.00
26/07/2022 17:00;1;34;34;22.06;33.00
26/07/2022 17:30;1;36;36;20.86;28.00
26/07/2022 18:00;1;26;26;22.15;33.00
26/07/2022 18:30;1;23;23;20.17;31.00
26/07/2022 19:00;1;20;20;20.90;30.00
26/07/2022 19:30;1;23;23;21.04;28.00
26/07/2022 20:00;1;15;15;20.73;29.00
26/07/2022 20:30;1;10;10;21.00;34.00
26/07/2022 21:00;1;9;9;19.78;26.00
26/07/2022 21:30;1;2;2;18.50;20.00
26/07/2022 22:00;1;2;2;16.00;16.00
26/07/2022 22:30;1;3;3;23.00;30.00
26/07/2022 23:00;1;4;4;21.00;25.00
26/07/2022 23:30;1;4;4;22.75;26.00
27/07/2022 00:00;1;3;3;26.67;29.00
27/07/2022 01:00;1;3;3;20.33;21.00
27/07/2022 04:00;1;1;1;18.00;18.00
27/07/2022 04:30;1;1;1;23.00;23.00
27/07/2022 05:00;1;1;1;19.00;19.00
27/07/2022 05:30;1;6;6;21.83;35.00
27/07/2022 06:00;1;8;8;21.62;25.00
27/07/2022 06:30;1;11;11;19.73;25.00
27/07/2022 07:00;1;10;10;22.10;30.00
27/07/2022 07:30;1;16;16;21.19;28.00
27/07/2022 08:00;1;25;25;22.40;35.00
27/07/2022 08:30;1;22;22;20.77;30.00
27/07/2022 09:00;1;20;20;19.55;27.00
27/07/2022 09:30;1;20;20;20.20;33.00
27/07/2022 10:00;1;25;25;22.08;37.00
27/07/2022 10:30;1;23;23;20.52;29.00
27/07/2022 11:00;1;16;16;18.88;30.00
27/07/2022 11:30;1;16;16;21.50;27.00
27/07/2022 12:00;1;14;14;19.07;26.00
27/07/2022 12:30;1;15;15;18.07;22.00
27/07/2022 13:00;1;17;17;20.24;28.00
27/07/2022 13:30;1;15;15;19.60;27.00
27/07/2022 14:00;1;15;15;22.60;49.00
27/07/2022 14:30;1;12;12;19.08;23.00
27/07/2022 15:00;1;19;19;19.84;24.00
27/07/2022 15:30;1;11;11;20.18;28.00
27/07/2022 16:00;1;20;20;21.10;30.00
27/07/2022 16:30;1;27;27;19.85;27.00
27/07/2022 17:00;1;29;29;20.55;27.00
27/07/2022 17:30;1;28;28;19.46;25.00
27/07/2022 18:00;1;47;47;20.21;29.00
27/07/2022 18:30;1;30;30;19.67;26.00
27/07/2022 19:00;1;17;17;22.53;34.00
27/07/2022 19:30;1;16;16;20.56;26.00
27/07/2022 20:00;1;13;13;21.62;29.00
27/07/2022 20:30;1;8;8;19.62;25.00
27/07/2022 21:00;1;6;6;23.17;30.00
27/07/2022 21:30;1;1;1;23.00;23.00
27/07/2022 22:30;1;2;2;19.50;21.00
27/07/2022 23:00;1;8;8;21.62;28.00
27/07/2022 23:30;1;3;3;21.67;25.00
28/07/2022 00:00;1;1;1;21.00;21.00
28/07/2022 00:30;1;1;1;26.00;26.00
28/07/2022 01:00;1;2;2;19.00;21.00
28/07/2022 01:30;1;1;1;17.00;17.00
28/07/2022 02:00;1;1;1;16.00;16.00
28/07/2022 04:00;1;1;1;20.00;20.00
28/07/2022 05:00;1;3;3;20.33;22.00
28/07/2022 05:30;1;7;7;20.57;25.00
28/07/2022 06:00;1;6;6;23.33;31.00
28/07/2022 06:30;1;7;7;19.14;21.00
28/07/2022 07:00;1;10;10;20.90;32.00
28/07/2022 07:30;1;19;19;22.89;30.00
28/07/2022 08:00;1;35;35;20.83;33.00
28/07/2022 08:30;1;29;29;20.97;30.00
28/07/2022 09:00;1;19;19;20.32;30.00
28/07/2022 09:30;1;16;16;19.06;33.00
28/07/2022 10:00;1;13;13;24.15;41.00
28/07/2022 10:30;1;15;15;22.60;33.00
28/07/2022 11:00;1;8;8;19.62;25.00
28/07/2022 11:30;1;11;11;20.45;34.00
28/07/2022 12:00;1;12;12;20.58;27.00
28/07/2022 12:30;1;14;14;20.14;27.00
28/07/2022 13:00;1;18;18;18.22;23.00
28/07/2022 13:30;1;12;12;22.25;28.00
28/07/2022 14:00;1;8;8;24.12;37.00
28/07/2022 14:30;1;15;15;20.87;36.00
28/07/2022 15:00;1;10;10;20.60;31.00
28/07/2022 15:30;1;17;17;20.65;30.00
28/07/2022 16:00;1;32;32;20.06;28.00
28/07/2022 16:30;1;28;28;19.86;30.00
28/07/2022 17:00;1;29;29;19.90;27.00
28/07/2022 17:30;1;24;24;21.54;35.00
28/07/2022 18:00;1;23;23;22.04;33.00
28/07/2022 18:30;1;28;28;20.71;31.00
28/07/2022 19:00;1;27;27;20.56;25.00
28/07/2022 19:30;1;9;9;19.89;28.00
28/07/2022 20:00;1;10;10;21.80;30.00
28/07/2022 20:30;1;7;7;21.57;27.00
28/07/2022 21:00;1;6;6;21.17;26.00
28/07/2022 21:30;1;2;2;23.50;29.00
28/07/2022 22:00;1;2;2;18.50;19.00
28/07/2022 22:30;1;2;2;21.50;23.00
28/07/2022 23:00;1;3;3;21.67;25.00
28/07/2022 23:30;1;2;2;21.00;21.00
29/07/2022 00:00;1;1;1;23.00;23.00
29/07/2022 00:30;1;2;2;16.50;17.00
29/07/2022 01:00;1;2;2;21.50;25.00
29/07/2022 02:00;1;1;1;16.00;16.00
29/07/2022 03:30;1;2;2;19.50;20.00
29/07/2022 04:00;1;1;1;16.00;16.00
29/07/2022 05:00;1;1;1;21.00;21.00
29/07/2022 05:30;1;8;8;20.88;30.00
29/07/2022 06:00;1;9;9;24.11;26.00
29/07/2022 06:30;1;8;8;21.38;28.00
29/07/2022 07:00;1;7;7;20.86;29.00
29/07/2022 07:30;1;17;17;21.12;27.00
29/07/2022 08:00;1;24;24;21.92;33.00
29/07/2022 08:30;1;29;29;19.86;27.00
29/07/2022 09:00;1;18;18;21.56;29.00
29/07/2022 09:30;1;14;14;22.57;34.00
29/07/2022 10:00;1;9;9;19.78;27.00
29/07/2022 10:30;1;24;24;19.58;33.00
29/07/2022 11:00;1;15;15;20.00;33.00
29/07/2022 11:30;1;13;13;23.69;32.00
29/07/2022 12:00;1;15;15;20.27;30.00
29/07/2022 12:30;1;13;13;19.62;28.00
29/07/2022 13:00;1;11;11;21.36;27.00
29/07/2022 13:30;1;17;17;19.29;26.00
29/07/2022 14:00;1;11;11;21.36;29.00
29/07/2022 14:30;1;15;15;19.73;29.00
29/07/2022 15:00;1;13;13;20.15;27.00
29/07/2022 15:30;1;22;22;20.09;34.00
29/07/2022 16:00;1;19;19;20.32;31.00
29/07/2022 16:30;1;21;21;22.19;33.00
29/07/2022 17:00;1;10;10;21.50;32.00
29/07/2022 17:30;1;13;13;21.92;30.00
29/07/2022 18:00;1;22;22;20.55;29.00
29/07/2022 18:30;1;6;6;22.67;26.00
29/07/2022 19:00;1;7;7;22.00;27.00
29/07/2022 19:30;1;6;6;19.67;26.00
29/07/2022 20:00;1;2;2;29.00;40.00
29/07/2022 20:30;1;8;8;23.12;27.00
29/07/2022 21:00;1;3;3;21.00;25.00
29/07/2022 21:30;1;6;6;21.83;28.00
29/07/2022 22:00;1;1;1;22.00;22.00
29/07/2022 22:30;1;7;7;21.71;35.00
29/07/2022 23:30;1;5;5;21.80;26.00
30/07/2022 00:00;1;2;2;22.00;23.00
30/07/2022 00:30;1;1;1;22.00;22.00
30/07/2022 01:00;1;2;2;18.50;19.00
30/07/2022 01:30;1;2;2;20.50;25.00
30/07/2022 06:00;1;3;3;21.33;26.00
30/07/2022 06:30;1;1;1;16.00;16.00
30/07/2022 07:00;1;4;4;17.50;19.00
30/07/2022 07:30;1;1;1;17.00;17.00
30/07/2022 08:00;1;12;12;20.83;32.00
30/07/2022 08:30;1;9;9;23.22;38.00
30/07/2022 09:00;1;20;20;23.90;42.00
30/07/2022 09:30;1;11;11;21.82;38.00
30/07/2022 10:00;1;11;11;19.18;24.00
30/07/2022 10:30;1;30;30;19.80;26.00
30/07/2022 11:00;1;22;22;19.14;30.00
30/07/2022 11:30;1;16;16;21.38;29.00
30/07/2022 12:00;1;18;18;20.17;30.00
30/07/2022 12:30;1;20;20;20.00;28.00
30/07/2022 13:00;1;21;21;20.00;27.00
30/07/2022 13:30;1;24;24;20.50;27.00
30/07/2022 14:00;1;19;19;19.84;27.00
30/07/2022 14:30;1;17;17;19.18;27.00
30/07/2022 15:00;1;11;11;19.82;28.00
30/07/2022 15:30;1;13;13;19.38;24.00
30/07/2022 16:00;1;16;16;19.19;25.00
30/07/2022 16:30;1;14;14;20.71;30.00
30/07/2022 17:00;1;16;16;20.00;26.00
30/07/2022 17:30;1;11;11;18.55;22.00
30/07/2022 18:00;1;14;14;20.21;24.00
30/07/2022 18:30;1;7;7;20.29;26.00
30/07/2022 19:00;1;10;10;22.90;31.00
30/07/2022 19:30;1;14;14;21.50;33.00
30/07/2022 20:00;1;9;9;21.11;26.00
30/07/2022 20:30;1;3;3;20.00;24.00
30/07/2022 21:00;1;2;2;20.00;20.00
30/07/2022 21:30;1;7;7;21.57;28.00
30/07/2022 22:00;1;3;3;18.67;22.00
30/07/2022 22:30;1;3;3;18.67;20.00
30/07/2022 23:00;1;2;2;20.50;22.00
30/07/2022 23:30;1;5;5;19.40;23.00
31/07/2022 00:00;1;2;2;27.00;27.00
31/07/2022 00:30;1;1;1;18.00;18.00
31/07/2022 01:30;1;3;3;20.33;21.00
31/07/2022 02:30;1;2;2;18.00;20.00
31/07/2022 03:30;1;1;1;21.00;21.00
31/07/2022 06:00;1;2;2;17.00;18.00
31/07/2022 06:30;1;1;1;22.00;22.00
31/07/2022 07:00;1;3;3;21.33;28.00
31/07/2022 07:30;1;4;4;17.75;21.00
31/07/2022 08:00;1;7;7;21.29;30.00
31/07/2022 08:30;1;16;16;20.56;28.00
31/07/2022 09:00;1;5;5;19.60;25.00
31/07/2022 09:30;1;9;9;19.33;24.00
31/07/2022 10:00;1;11;11;21.45;32.00
31/07/2022 10:30;1;14;14;18.93;24.00
31/07/2022 11:00;1;23;23;18.96;24.00
31/07/2022 11:30;1;10;10;19.20;23.00
31/07/2022 12:00;1;6;6;21.33;31.00
31/07/2022 12:30;1;11;11;18.36;22.00
31/07/2022 13:00;1;15;15;19.27;27.00
31/07/2022 13:30;1;21;21;19.95;27.00
31/07/2022 14:00;1;21;21;18.14;24.00
31/07/2022 14:30;1;21;21;19.38;30.00
31/07/2022 15:00;1;27;27;18.89;26.00
31/07/2022 15:30;1;12;12;18.67;25.00
31/07/2022 16:00;1;21;21;20.29;29.00
31/07/2022 16:30;1;13;13;20.85;30.00
31/07/2022 17:00;1;11;11;19.09;27.00
31/07/2022 17:30;1;10;10;20.60;26.00
31/07/2022 18:00;1;13;13;20.08;26.00
31/07/2022 18:30;1;19;19;19.79;25.00
31/07/2022 19:00;1;10;10;22.30;27.00
31/07/2022 19:30;1;8;8;21.50;24.00
31/07/2022 20:00;1;13;13;21.00;32.00
31/07/2022 20:30;1;13;13;20.08;28.00
31/07/2022 21:00;1;2;2;19.00;20.00
31/07/2022 21:30;1;3;3;22.00;25.00
31/07/2022 22:00;1;3;3;18.67;19.00
31/07/2022 22:30;1;2;2;24.00;26.00
31/07/2022 23:00;1;3;3;16.33;17.00
01/08/2022 00:00;1;1;1;27.00;27.00
01/08/2022 01:00;1;1;1;16.00;16.00
01/08/2022 02:00;1;2;2;18.50;20.00
01/08/2022 03:30;1;1;1;26.00;26.00
01/08/2022 04:00;1;2;2;22.00;23.00
01/08/2022 04:30;1;1;1;17.00;17.00
01/08/2022 05:00;1;2;2;21.50;22.00
01/08/2022 05:30;1;5;5;19.60;22.00
01/08/2022 06:00;1;9;9;23.22;28.00
01/08/2022 06:30;1;9;9;19.78;30.00
01/08/2022 07:00;1;16;16;21.62;28.00
01/08/2022 07:30;1;29;29;22.21;30.00
01/08/2022 08:00;1;28;28;20.93;30.00
01/08/2022 08:30;1;22;22;20.32;28.00
01/08/2022 09:00;1;13;13;19.00;29.00
01/08/2022 09:30;1;14;14;20.36;26.00
01/08/2022 10:00;1;16;16;20.62;24.00
01/08/2022 10:30;1;18;18;19.61;25.00
01/08/2022 11:00;1;18;18;19.67;29.00
01/08/2022 11:30;1;21;21;18.48;23.00
01/08/2022 12:00;1;22;22;19.50;29.00
01/08/2022 12:30;1;18;18;19.61;28.00
01/08/2022 13:00;1;16;16;21.25;31.00
01/08/2022 13:30;1;21;21;20.00;30.00
01/08/2022 14:00;1;21;21;20.81;32.00
01/08/2022 14:30;1;18;18;19.94;24.00
01/08/2022 15:00;1;21;21;20.10;29.00
01/08/2022 15:30;1;16;16;21.75;29.00
01/08/2022 16:00;1;36;36;19.81;27.00
01/08/2022 16:30;1;26;26;20.38;29.00
01/08/2022 17:00;1;36;36;19.75;30.00
01/08/2022 17:30;1;26;26;20.31;30.00
01/08/2022 18:00;1;15;15;18.87;23.00
01/08/2022 18:30;1;15;15;20.93;30.00
01/08/2022 19:00;1;16;16;20.56;27.00
01/08/2022 19:30;1;13;13;21.46;29.00
01/08/2022 20:00;1;3;3;24.00;32.00
01/08/2022 20:30;1;7;7;18.57;21.00
01/08/2022 21:00;1;4;4;20.75;25.00
01/08/2022 21:30;1;7;7;21.14;27.00
01/08/2022 22:00;1;4;4;19.50;23.00
01/08/2022 22:30;1;5;5;21.80;29.00
01/08/2022 23:00;1;2;2;21.00;22.00
02/08/2022 00:00;1;2;2;21.50;24.00
02/08/2022 01:00;1;1;1;31.00;31.00
02/08/2022 01:30;1;1;1;19.00;19.00
02/08/2022 03:00;1;1;1;29.00;29.00
02/08/2022 04:30;1;1;1;21.00;21.00
02/08/2022 05:00;1;1;1;24.00;24.00
02/08/2022 05:30;1;5;5;22.00;33.00
02/08/2022 06:00;1;6;6;22.83;27.00
02/08/2022 06:30;1;8;8;18.62;22.00
02/08/2022 07:00;1;22;22;21.95;28.00
02/08/2022 07:30;1;13;13;21.31;30.00
02/08/2022 08:00;1;29;29;22.21;32.00
02/08/2022 08:30;1;36;36;18.83;25.00
02/08/2022 09:00;1;14;14;19.21;25.00
02/08/2022 09:30;1;16;16;20.69;31.00
02/08/2022 10:00;1;12;12;17.83;20.00
02/08/2022 10:30;1;22;22;19.09;24.00
02/08/2022 11:00;1;12;12;18.58;27.00
02/08/2022 11:30;1;11;11;18.64;21.00
02/08/2022 12:00;1;14;14;18.14;21.00
02/08/2022 12:30;1;26;26;20.62;33.00
02/08/2022 13:00;1;11;11;20.91;35.00
02/08/2022 13:30;1;28;28;20.04;27.00
02/08/2022 14:00;1;26;26;20.31;32.00
02/08/2022 14:30;1;11;11;18.09;23.00
02/08/2022 15:00;1;11;11;19.82;23.00
02/08/2022 15:30;1;21;21;19.86;29.00
02/08/2022 16:00;1;19;19;20.42;25.00
02/08/2022 16:30;1;22;22;20.36;28.00
02/08/2022 17:00;1;25;25;20.44;26.00
02/08/2022 17:30;1;30;30;20.70;29.00
02/08/2022 18:00;1;29;29;21.24;44.00
02/08/2022 18:30;1;20;20;20.05;27.00
02/08/2022 19:00;1;29;29;21.03;29.00
02/08/2022 19:30;1;18;18;22.67;34.00
02/08/2022 20:00;1;14;14;20.00;27.00
02/08/2022 20:30;1;9;9;19.78;22.00
02/08/2022 21:00;1;9;9;18.78;22.00
02/08/2022 21:30;1;5;5;18.80;22.00
02/08/2022 22:00;1;10;10;21.90;28.00
02/08/2022 22:30;1;5;5;22.60;32.00
02/08/2022 23:00;1;10;10;20.10;26.00
02/08/2022 23:30;1;3;3;17.67;19.00
03/08/2022 00:00;1;4;4;24.00;35.00
03/08/2022 03:00;1;1;1;23.00;23.00
03/08/2022 04:30;1;1;1;18.00;18.00
03/08/2022 05:00;1;2;2;23.00;27.00
03/08/2022 05:30;1;6;6;18.17;21.00
03/08/2022 06:00;1;6;6;22.83;28.00